Date,TemperatureHighF,TemperatureAvgF,TemperatureLowF,DewpointHighF,DewpointAvgF,DewpointLowF,HumidityHigh,HumidityAvg,HumidityLow,PressureMaxIn,PressureMinIn,WindSpeedMaxMPH,WindSpeedAvgMPH,GustSpeedMaxMPH,PrecipitationSumIn
2013-1-1,39.2,36.1,26.1,29.0,23.6,11.0,71,59,47,30.00,29.82,29,11,32,0.01
2013-1-2,31.5,26.9,21.4,18.0,14.6,11.0,66,57,50,30.16,29.97,24,11,33,0.00
2013-1-3,31.8,26.6,16.3,18.0,15.3,8.0,70,60,47,30.19,30.06,17,7,20,0.00
2013-1-4,38.3,34.5,30.9,24.0,22.1,18.0,67,58,49,30.07,29.93,23,9,30,0.00
2013-1-5,41.7,35.6,29.5,28.0,22.8,18.0,81,58,46,30.27,29.99,27,9,34,0.00
2013-1-6,44.5,38.4,31.5,35.0,29.4,24.0,86,69,53,30.23,29.97,16,6,17,0.00
2013-1-7,45.2,38.5,28.8,31.0,26.7,21.0,84,63,38,30.41,30.04,20,7,25,0.00
2013-1-8,48.2,37.9,27.7,33.0,29.1,24.0,89,71,52,30.44,30.34,16,5,21,0.00
2013-1-9,47.8,38.6,28.6,38.0,32.7,26.0,92,79,60,30.39,30.12,21,5,22,0.00
2013-1-10,47.9,42.7,35.5,33.0,25.1,21.0,64,50,36,30.55,30.21,34,9,34,0.00
2013-1-11,43.6,37.3,32.1,44.0,32.2,24.0,99,81,64,30.55,30.11,14,3,16,0.43
2013-1-12,45.4,43.7,41.8,45.0,43.5,42.0,100,99,94,30.20,30.08,14,4,14,0.06
2013-1-13,47.5,42.9,40.6,47.5,43.0,41.0,100,100,100,30.18,30.02,9,2,10,0.00
2013-1-14,57.4,48.3,37.7,55.0,43.9,31.0,100,86,59,30.30,29.92,21,6,29,0.08
2013-1-15,38.4,36.8,35.0,35.0,29.1,26.0,93,74,61,30.35,30.22,14,6,20,0.10
2013-1-16,36.2,34.0,31.9,36.0,33.3,28.0,98,96,74,30.24,29.81,15,4,19,0.31
2013-1-17,42.3,38.3,32.9,36.0,29.9,23.0,97,71,55,30.10,29.91,24,8,30,0.29
2013-1-18,32.9,27.4,23.8,23.0,12.1,8.0,64,49,37,30.48,30.02,22,10,27,0.00
2013-1-19,49.8,39.3,30.5,32.0,25.2,16.0,68,56,39,30.40,29.93,26,11,28,0.00
2013-1-20,52.5,42.8,29.9,33.0,24.8,11.0,74,50,22,30.03,29.66,40,13,46,0.00
2013-1-21,31.1,28.5,24.6,21.0,15.1,11.0,72,55,43,30.10,29.82,20,6,22,0.00
2013-1-22,27.3,20.0,13.4,21.0,3.8,-6.0,71,45,32,30.18,29.80,35,18,41,0.00
2013-1-23,18.5,14.3,11.0,4.0,-0.5,-6.0,56,45,35,30.24,30.14,33,12,33,0.00
2013-1-24,22.5,16.2,8.7,8.0,2.3,0.0,74,51,34,30.38,30.14,38,14,39,0.02
2013-1-25,23.2,18.1,13.2,18.0,8.4,0.0,89,62,44,30.41,30.07,27,7,28,0.00
2013-1-26,27.5,20.1,15.0,16.0,11.5,4.0,87,66,43,30.36,30.04,28,10,29,0.00
2013-1-27,33.0,25.2,17.5,16.0,11.4,8.0,75,54,36,30.51,30.36,18,6,22,0.00
2013-1-28,34.8,29.7,23.0,33.0,25.2,14.0,97,83,63,30.50,30.01,18,5,21,0.13
2013-1-29,42.7,36.8,34.8,41.0,35.4,32.0,98,94,90,30.18,30.00,14,5,15,0.09
2013-1-30,52.4,45.7,37.0,52.0,45.6,37.0,100,99,98,30.12,29.40,35,4,35,0.06
2013-1-31,55.9,44.3,29.9,56.0,30.7,11.0,100,61,34,29.77,29.06,60,22,61,1.35
2013-2-1,30.7,28.2,24.1,14.0,10.9,4.0,59,45,34,30.22,29.75,38,15,42,0.00
2013-2-2,29.0,24.3,19.5,23.0,11.6,8.0,89,57,37,30.30,30.07,25,10,28,0.00
2013-2-3,30.6,25.8,21.1,23.0,19.9,16.0,93,77,54,30.07,29.79,15,6,17,0.00
2013-2-4,29.8,27.1,23.5,23.0,12.4,8.0,78,52,39,29.98,29.79,30,13,36,0.00
2013-2-5,29.3,27.9,25.4,28.0,22.6,14.0,91,79,50,30.00,29.92,13,4,14,0.00
2013-2-6,37.8,32.5,28.3,29.0,21.9,8.0,95,66,38,30.36,29.93,28,10,32,0.00
2013-2-7,32.9,27.7,22.8,26.0,12.5,4.0,74,50,39,30.54,30.35,20,6,20,0.00
2013-2-8,33.8,32.3,29.4,33.0,30.2,24.0,100,92,73,30.36,29.61,32,13,32,0.03
2013-2-9,32.6,28.7,21.5,29.0,17.7,4.0,99,65,33,30.33,29.73,42,17,44,0.02
2013-2-10,35.4,25.5,16.0,23.0,11.5,4.0,82,53,27,30.48,30.33,18,6,18,0.00
2013-2-11,42.8,36.8,27.3,43.0,35.7,23.0,100,95,80,30.35,29.68,14,2,14,0.45
2013-2-12,43.2,40.0,33.7,41.0,29.3,23.0,99,66,48,29.98,29.72,32,10,32,0.01
2013-2-13,39.3,35.4,27.7,32.0,26.4,23.0,91,69,53,29.96,29.71,15,5,15,0.00
2013-2-14,41.5,37.1,31.8,36.0,30.0,24.0,95,75,50,30.01,29.72,16,6,18,0.01
2013-2-15,49.9,40.2,33.5,37.0,34.9,31.0,94,81,55,30.04,29.93,25,5,28,0.00
2013-2-16,42.0,34.8,30.3,35.0,25.4,16.0,94,69,49,29.98,29.72,25,9,25,0.02
2013-2-17,30.4,25.8,17.4,16.0,7.1,4.0,52,42,31,29.95,29.61,50,22,52,0.36
2013-2-18,33.7,25.2,17.5,14.0,7.7,4.0,55,45,32,30.23,29.94,46,15,46,0.00
2013-2-19,44.5,37.2,25.2,44.0,30.8,14.0,97,78,45,30.22,29.67,29,6,31,0.22
2013-2-20,39.0,31.1,25.4,28.0,15.4,11.0,63,50,40,29.96,29.69,37,18,44,0.04
2013-2-21,32.3,27.7,24.6,16.0,14.2,11.0,63,53,46,30.28,29.94,43,19,43,0.00
2013-2-22,35.3,30.7,24.6,31.0,22.9,16.0,83,72,58,30.41,30.24,28,7,30,0.00
2013-2-23,39.2,36.9,34.8,39.0,34.8,29.0,98,92,81,30.30,29.83,21,7,27,0.16
2013-2-24,44.6,38.8,33.8,38.0,33.9,26.0,98,82,56,29.96,29.74,35,12,35,0.01
2013-2-25,45.1,38.0,29.0,31.0,25.6,23.0,80,61,46,30.26,29.96,24,6,24,0.00
2013-2-26,57.9,36.6,31.3,46.0,31.3,26.0,94,80,58,30.33,29.93,34,8,35,1.02
2013-2-27,44.3,41.4,35.9,43.0,40.1,35.0,100,94,84,29.96,29.50,45,14,54,2.17
2013-2-28,45.6,41.1,38.3,40.0,36.7,32.0,97,84,64,29.65,29.57,18,5,18,0.00
2013-3-1,44.3,39.8,35.0,35.0,30.3,26.0,91,69,52,29.79,29.61,24,9,28,0.00
2013-3-2,38.2,35.8,31.5,29.0,25.3,24.0,88,65,56,29.79,29.70,21,11,22,0.00
2013-3-3,39.3,32.8,29.7,28.0,21.8,18.0,84,62,45,29.76,29.66,28,13,31,0.00
2013-3-4,38.3,32.8,28.3,23.0,20.4,16.0,69,58,48,29.90,29.72,38,18,42,0.00
2013-3-5,47.2,38.0,30.8,32.0,25.7,21.0,75,60,42,30.06,29.91,20,7,26,0.00
2013-3-6,41.7,39.3,37.9,36.0,32.1,28.0,82,74,64,30.03,29.90,37,13,42,0.01
2013-3-7,38.3,35.6,33.4,33.0,30.3,26.0,95,81,68,30.09,29.94,30,13,33,0.01
2013-3-8,41.7,35.6,31.1,33.0,30.0,24.0,98,81,53,30.20,29.99,30,15,33,0.01
2013-3-9,54.6,43.3,34.4,31.0,22.5,18.0,81,46,24,30.36,30.18,23,9,28,0.00
2013-3-10,39.1,35.6,29.2,36.0,32.2,28.0,94,87,79,30.44,30.34,16,6,18,0.00
2013-3-11,47.6,42.2,37.2,47.0,39.4,35.0,96,90,83,30.36,30.14,14,5,16,0.00
2013-3-12,53.0,49.2,44.6,52.0,47.1,38.0,100,92,77,30.15,29.70,46,13,46,0.51
2013-3-13,48.5,42.2,34.6,39.0,31.5,21.0,98,68,34,29.92,29.80,23,8,28,0.00
2013-3-14,39.0,33.5,28.0,29.0,14.3,8.0,68,44,27,29.96,29.84,46,20,49,0.05
2013-3-15,44.7,36.5,29.5,29.0,18.9,8.0,59,47,33,29.99,29.74,33,12,36,0.00
2013-3-16,40.1,34.4,31.4,32.0,25.3,18.0,96,69,51,29.93,29.80,20,6,24,0.01
2013-3-17,37.4,33.1,29.2,31.0,19.3,11.0,91,58,34,30.34,29.94,25,9,26,0.01
2013-3-18,33.4,29.8,25.3,33.0,17.6,8.0,99,59,38,30.45,30.08,30,10,32,0.00
2013-3-19,41.0,36.4,33.1,37.0,34.1,28.0,99,91,70,30.08,29.71,31,10,38,0.67
2013-3-20,43.5,36.9,31.4,28.0,20.3,16.0,70,50,32,29.90,29.81,29,11,35,0.00
2013-3-21,37.1,33.5,31.9,28.0,22.3,16.0,81,62,43,29.88,29.66,26,7,28,0.00
2013-3-22,39.5,34.3,28.4,21.0,18.0,11.0,66,50,41,29.90,29.73,29,13,34,0.00
2013-3-23,43.1,38.1,33.3,23.0,20.4,18.0,58,47,35,29.95,29.80,39,17,46,0.02
2013-3-24,45.9,38.1,31.2,31.0,22.6,16.0,71,52,38,29.97,29.75,26,7,26,0.00
2013-3-25,41.1,38.6,36.3,36.0,29.6,26.0,91,69,52,29.75,29.49,27,8,30,0.08
2013-3-26,49.4,42.3,37.1,31.0,27.6,24.0,68,56,39,29.88,29.60,30,9,31,0.00
2013-3-27,50.2,42.6,35.1,29.0,25.5,21.0,72,51,32,29.98,29.87,31,13,34,0.00
2013-3-28,48.6,43.2,37.0,32.0,30.0,28.0,71,59,48,30.12,29.96,24,12,27,0.00
2013-3-29,52.0,45.9,37.7,31.0,28.3,24.0,68,50,34,30.17,30.06,26,10,28,0.00
2013-3-30,55.7,46.1,36.9,32.0,27.7,18.0,75,51,24,30.19,30.08,24,8,27,0.00
2013-3-31,49.7,41.6,32.0,43.0,34.6,29.0,97,76,57,30.17,29.70,23,7,27,0.08
2013-4-1,60.8,46.7,37.6,47.0,37.4,14.0,98,73,31,29.92,29.63,36,11,45,0.03
2013-4-2,41.7,37.0,32.2,18.0,13.4,11.0,52,36,26,30.10,29.92,35,16,43,0.01
2013-4-3,43.9,37.9,32.0,16.0,13.9,11.0,49,35,26,30.31,30.07,37,17,40,0.00
2013-4-4,47.3,39.1,31.7,35.0,23.2,14.0,78,52,35,30.41,30.12,32,10,33,0.00
2013-4-5,59.4,46.7,40.0,37.0,28.0,14.0,79,53,20,30.12,29.71,32,11,41,0.00
2013-4-6,48.0,40.7,34.4,32.0,17.8,4.0,70,40,17,30.35,30.00,25,10,30,0.00
2013-4-7,50.2,44.1,39.1,44.0,36.8,32.0,89,75,62,30.35,30.04,26,11,28,0.00
2013-4-8,65.9,51.1,41.4,47.0,42.8,40.0,96,76,39,30.13,30.01,11,4,13,0.00
2013-4-9,77.7,61.6,45.5,53.0,43.3,37.0,96,59,23,30.06,29.93,34,8,36,0.00
2013-4-10,63.1,53.4,47.3,54.5,46.3,39.0,97,78,45,30.02,29.84,37,6,38,1.64
2013-4-11,56.6,51.0,45.9,55.0,47.0,39.0,100,87,64,30.10,29.82,16,6,20,0.01
2013-4-12,46.1,42.3,40.2,41.0,38.8,35.0,96,87,72,30.09,29.76,41,14,47,0.82
2013-4-13,53.7,45.8,39.2,41.0,38.4,33.0,96,77,47,30.00,29.78,21,7,24,0.04
2013-4-14,53.6,49.5,45.0,43.0,31.9,26.0,88,53,34,30.26,30.00,32,10,36,0.00
2013-4-15,50.1,45.2,39.8,40.0,32.5,26.0,82,61,47,30.43,30.26,17,5,18,0.00
2013-4-16,57.3,50.7,42.8,52.0,45.8,38.0,92,83,74,30.42,30.16,23,7,24,0.00
2013-4-17,68.7,58.8,51.8,54.5,41.1,32.0,92,56,26,30.33,30.14,21,6,23,0.00
2013-4-18,53.4,50.6,46.6,49.0,43.3,38.0,90,77,59,30.40,30.15,19,8,21,0.00
2013-4-19,64.6,58.1,52.3,60.0,56.3,50.0,100,94,83,30.16,29.69,25,10,27,0.00
2013-4-20,59.4,53.4,46.5,59.0,37.4,24.0,99,59,29,30.31,29.69,35,12,35,0.15
2013-4-21,50.9,43.8,35.6,33.0,24.3,18.0,63,45,28,30.66,30.30,31,9,32,0.00
2013-4-22,48.7,44.4,37.7,38.0,33.4,29.0,80,65,52,30.72,30.53,27,12,33,0.00
2013-4-23,52.2,44.6,39.4,41.0,36.8,31.0,87,74,65,30.54,30.14,26,8,29,0.00
2013-4-24,59.8,49.6,39.9,49.0,44.0,38.0,97,82,62,30.15,29.89,23,8,23,0.00
2013-4-25,62.7,53.4,47.2,52.0,34.1,21.0,97,52,21,30.30,29.90,33,10,36,0.00
2013-4-26,64.5,53.0,40.1,39.0,34.2,28.0,88,53,25,30.45,30.29,19,6,26,0.00
2013-4-27,63.5,53.5,44.5,41.0,33.7,28.0,67,47,29,30.46,30.31,17,7,19,0.00
2013-4-28,60.5,50.9,42.8,47.0,41.2,35.0,91,71,40,30.36,30.26,15,6,21,0.00
2013-4-29,55.2,52.8,50.9,49.0,46.0,40.0,88,78,63,30.29,30.24,11,4,12,0.02
2013-4-30,59.8,53.9,47.0,47.5,41.3,32.0,81,64,36,30.38,30.26,17,6,21,0.00
2013-5-1,60.0,51.7,40.9,48.0,40.6,28.0,86,67,35,30.52,30.37,18,6,18,0.00
2013-5-2,67.3,54.7,42.9,49.0,44.6,36.0,95,71,35,30.52,30.36,16,5,16,0.00
2013-5-3,58.8,53.2,49.7,47.0,41.2,35.0,85,64,47,30.51,30.40,22,8,23,0.00
2013-5-4,60.4,52.1,45.7,48.0,44.3,41.0,94,76,51,30.42,30.28,18,8,18,0.00
2013-5-5,56.8,49.5,42.4,47.5,41.7,36.0,92,75,55,30.35,30.26,19,7,22,0.00
2013-5-6,59.7,51.5,44.9,51.0,46.6,42.0,92,83,69,30.33,30.19,16,6,17,0.00
2013-5-7,64.1,56.0,48.3,59.0,53.0,47.0,98,90,76,30.22,30.14,15,5,19,0.00
2013-5-8,63.1,59.1,55.0,61.5,57.8,55.0,99,95,89,30.16,30.03,19,6,29,0.50
2013-5-9,61.2,57.1,54.1,60.0,56.8,54.0,100,99,93,30.07,29.93,14,3,16,0.97
2013-5-10,74.8,62.8,52.8,61.5,56.6,53.0,100,82,51,30.04,29.93,20,5,22,0.00
2013-5-11,64.8,61.4,58.9,62.5,60.1,56.5,100,96,89,29.94,29.74,23,5,27,0.30
2013-5-12,68.7,60.8,52.1,60.0,45.0,26.0,100,62,28,29.96,29.69,36,10,36,0.03
2013-5-13,53.5,49.4,44.3,36.0,29.2,23.0,71,46,31,30.13,29.95,26,10,28,0.00
2013-5-14,60.8,50.2,41.0,44.0,31.7,23.0,80,53,24,30.15,30.05,20,8,24,0.00
2013-5-15,65.4,54.2,42.1,55.0,48.0,40.0,93,80,58,30.11,29.72,20,5,24,0.00
2013-5-16,74.4,64.2,54.1,57.0,51.4,45.0,96,66,41,29.86,29.73,20,6,25,0.00
2013-5-17,72.6,63.1,56.1,51.0,40.8,36.0,80,46,31,30.25,29.86,26,8,26,0.00
2013-5-18,65.7,56.5,48.4,56.5,50.0,43.0,95,79,54,30.35,30.24,12,4,15,0.09
2013-5-19,57.4,56.6,55.3,57.5,55.6,50.5,100,97,79,30.38,30.22,13,6,14,0.30
2013-5-20,75.8,64.8,57.1,66.7,61.9,57.0,100,91,72,30.23,30.00,15,5,20,0.00
2013-5-21,81.3,71.1,60.8,69.3,65.7,61.0,100,84,62,30.02,29.87,20,6,22,0.00
2013-5-22,68.7,61.8,55.4,65.0,60.4,55.0,100,95,87,30.00,29.89,21,4,24,0.00
2013-5-23,73.9,66.3,63.4,67.5,64.7,63.0,99,95,79,29.94,29.81,20,7,24,0.11
2013-5-24,67.8,58.1,47.9,66.0,56.6,44.0,100,94,85,29.96,29.71,24,10,33,0.26
2013-5-25,52.9,48.7,45.1,47.5,44.0,41.0,94,84,67,30.01,29.88,40,16,47,0.37
2013-5-26,64.3,55.1,48.0,42.0,39.4,36.0,75,58,36,30.23,29.94,36,15,51,0.02
2013-5-27,73.3,59.4,44.2,50.0,41.1,35.0,86,54,27,30.27,30.14,22,7,23,0.00
2013-5-28,59.2,55.2,49.6,57.5,51.2,46.0,100,87,63,30.27,30.17,10,3,11,0.37
2013-5-29,79.3,64.5,57.0,68.5,61.1,57.0,100,90,69,30.19,30.03,11,4,15,0.01
2013-5-30,87.5,75.5,62.9,69.3,65.0,62.5,99,73,44,30.16,30.08,16,5,18,0.00
2013-5-31,87.6,76.3,66.7,69.3,65.9,62.5,94,72,47,30.16,30.02,18,5,20,0.00
2013-6-1,81.5,74.6,66.1,68.5,66.2,64.0,93,76,61,30.06,29.93,18,6,22,0.00
2013-6-2,78.8,72.7,66.3,67.5,66.1,63.5,92,80,68,29.96,29.80,18,7,22,0.02
2013-6-3,76.3,69.8,66.1,68.5,65.5,53.0,100,87,55,29.91,29.83,17,5,18,1.03
2013-6-4,74.7,64.8,54.7,54.0,44.7,38.0,72,50,27,30.15,29.91,26,9,26,0.00
2013-6-5,68.6,62.4,55.0,54.5,46.9,38.0,82,57,42,30.26,30.14,16,7,17,0.00
2013-6-6,66.3,61.3,54.0,60.5,56.2,52.0,96,84,60,30.20,30.08,18,7,20,0.06
2013-6-7,61.1,59.8,58.2,60.5,59.1,57.0,100,98,94,30.08,29.69,30,9,30,3.27
2013-6-8,76.3,65.8,56.4,65.0,60.4,56.0,100,84,63,30.08,29.61,25,8,25,0.70
2013-6-9,78.6,68.3,58.8,62.5,60.2,57.0,99,77,51,30.21,30.08,14,4,14,0.00
2013-6-10,67.8,63.5,60.8,65.5,62.1,60.0,100,96,91,30.21,29.90,21,6,24,1.23
2013-6-11,80.6,70.7,61.0,70.0,64.0,56.0,100,81,58,29.90,29.62,33,8,34,0.46
2013-6-12,74.6,68.8,60.4,57.5,54.0,51.0,88,60,46,29.89,29.71,31,13,34,0.00
2013-6-13,63.2,60.0,55.3,60.5,57.6,54.0,98,92,82,29.88,29.53,28,7,30,1.34
2013-6-14,67.0,59.6,53.1,59.0,54.8,51.0,97,85,62,29.91,29.57,25,7,25,0.46
2013-6-15,79.1,68.6,56.3,61.0,54.3,47.5,98,65,36,30.04,29.91,23,6,25,0.00
2013-6-16,80.7,69.3,57.9,65.0,58.8,53.5,90,70,48,30.03,29.78,18,5,26,0.00
2013-6-17,83.1,73.3,64.1,68.0,64.7,62.0,97,76,53,29.96,29.85,35,6,39,0.47
2013-6-18,70.7,66.5,62.6,69.7,65.0,61.5,98,95,87,29.95,29.87,14,4,16,0.19
2013-6-19,76.8,67.3,58.2,64.0,53.4,41.0,97,65,29,30.22,29.93,19,6,21,0.01
2013-6-20,76.1,66.4,56.4,60.5,57.2,54.5,94,74,51,30.31,30.21,17,8,18,0.00
2013-6-21,77.9,70.2,58.7,60.5,56.7,51.0,82,63,51,30.34,30.26,19,8,20,0.00
2013-6-22,80.2,70.0,59.6,63.5,59.6,56.5,90,71,50,30.30,30.18,17,7,20,0.00
2013-6-23,80.6,73.2,62.8,71.0,65.7,59.0,93,78,61,30.23,30.10,21,7,23,0.00
2013-6-24,90.1,78.8,71.0,73.3,69.8,64.0,98,76,47,30.11,29.95,26,6,34,0.00
2013-6-25,91.0,78.8,68.2,70.0,67.6,65.0,93,70,45,30.03,29.82,20,6,30,0.00
2013-6-26,84.2,79.0,73.7,69.7,67.9,66.3,86,69,58,29.87,29.79,17,6,21,0.00
2013-6-27,76.6,72.4,69.7,72.3,70.1,68.0,98,92,84,29.87,29.60,25,7,26,0.48
2013-6-28,81.1,75.7,71.5,72.3,70.7,66.3,96,85,70,29.61,29.50,26,9,26,0.00
2013-6-29,79.3,74.0,69.4,71.3,69.3,66.7,96,85,69,29.75,29.53,18,7,20,0.00
2013-6-30,76.6,72.5,68.0,73.7,71.3,67.5,100,96,89,29.96,29.75,18,6,18,0.00
2013-7-1,74.9,73.4,72.2,74.0,72.7,71.7,100,98,95,30.10,29.95,32,6,42,0.50
2013-7-2,84.9,77.1,73.5,79.0,74.9,73.0,99,94,81,30.23,30.10,19,6,19,0.02
2013-7-3,87.7,78.4,73.7,79.3,75.1,72.7,98,90,74,30.29,30.21,13,5,16,0.04
2013-7-4,87.8,81.5,75.9,79.0,76.2,73.0,100,85,69,30.29,30.18,17,7,20,0.00
2013-7-5,89.0,82.0,76.0,76.3,73.9,71.3,92,77,59,30.25,30.11,20,6,21,0.00
2013-7-6,92.3,85.5,78.6,75.5,72.8,70.0,85,67,49,30.17,30.05,23,7,24,0.00
2013-7-7,88.7,84.0,75.7,75.5,72.8,67.5,89,70,58,30.09,29.95,17,7,24,0.00
2013-7-8,88.9,79.0,72.9,72.7,68.8,65.5,97,72,47,30.07,29.99,24,7,27,0.15
2013-7-9,83.7,76.0,70.1,73.7,71.3,68.0,99,86,61,30.11,30.02,20,3,33,0.35
2013-7-10,83.6,77.7,72.1,75.5,72.9,71.0,98,86,66,30.06,29.83,19,6,22,0.00
2013-7-11,83.0,77.4,73.8,74.0,71.3,62.5,97,82,65,29.96,29.84,15,5,18,0.19
2013-7-12,76.6,72.5,66.6,69.7,66.0,62.0,97,80,66,30.16,29.95,19,5,19,0.31
2013-7-13,76.9,71.6,66.2,74.3,70.3,65.0,100,96,89,30.33,30.16,19,5,19,0.07
2013-7-14,89.2,80.2,73.2,77.7,74.4,72.3,100,84,58,30.37,30.26,16,5,22,0.00
2013-7-15,94.2,85.1,79.0,75.5,73.4,72.0,87,69,50,30.28,30.16,18,5,19,0.00
2013-7-16,93.0,84.2,76.6,74.7,68.0,62.0,88,60,37,30.23,30.15,18,6,22,0.00
2013-7-17,89.4,81.5,74.4,77.0,71.5,68.0,89,73,61,30.23,30.09,9,5,9,0.00
2013-7-18,96.6,85.5,77.0,76.0,73.2,69.0,86,69,42,30.10,29.98,9,3,9,0.00
2013-7-19,97.2,89.1,80.9,76.0,74.0,71.0,86,63,44,30.01,29.80,9,4,9,0.00
2013-7-20,91.7,85.4,80.5,76.0,71.3,66.0,73,64,49,29.88,29.73,9,3,9,0.00
2013-7-21,80.5,76.6,73.5,73.0,67.7,61.0,92,75,56,30.01,29.86,9,4,9,0.02
2013-7-22,78.5,74.4,71.7,74.0,71.6,69.0,98,92,85,30.01,29.85,9,4,9,0.09
2013-7-23,87.0,77.4,72.5,75.0,72.8,71.0,100,88,64,29.86,29.57,9,4,9,0.74
2013-7-24,80.8,75.9,67.3,73.0,66.7,54.0,98,75,56,29.98,29.65,9,3,9,0.00
2013-7-25,67.3,63.7,62.1,60.0,55.7,52.0,92,76,63,30.12,29.96,9,4,9,0.04
2013-7-26,82.2,70.5,61.9,68.0,62.2,59.0,93,77,49,30.09,30.03,9,4,9,0.01
2013-7-27,79.8,73.0,64.3,69.0,66.1,63.0,97,81,61,30.11,30.01,9,4,9,0.00
2013-7-28,75.9,71.8,67.0,71.0,68.0,65.0,97,89,75,30.05,29.98,9,4,9,0.06
2013-7-29,84.6,75.1,69.4,72.0,66.8,52.0,99,79,35,30.13,30.00,9,4,9,0.01
2013-7-30,79.5,71.6,63.2,61.0,57.8,54.0,88,64,46,30.20,30.13,9,4,9,0.00
2013-7-31,78.2,71.1,62.4,66.0,61.9,59.0,92,74,55,30.21,30.08,9,5,9,0.00
2013-8-1,75.0,70.2,67.2,69.0,66.0,63.0,97,88,71,30.09,29.88,22,8,22,0.35
2013-8-2,84.1,75.2,66.9,69.0,63.7,58.0,99,71,43,29.95,29.83,23,6,23,0.00
2013-8-3,79.2,71.4,67.0,67.0,63.3,59.0,93,77,60,29.96,29.88,19,5,19,0.05
2013-8-4,77.9,70.0,62.4,66.0,58.6,54.0,94,69,45,30.01,29.88,29,9,31,0.00
2013-8-5,77.0,67.4,58.1,59.0,51.3,44.0,89,59,36,30.10,29.99,21,7,23,0.00
2013-8-6,76.9,68.1,58.3,65.0,59.5,55.0,93,76,55,30.19,30.09,18,7,18,0.00
2013-8-7,75.1,70.9,64.9,68.0,64.1,60.0,90,80,71,30.20,30.12,24,9,25,0.00
2013-8-8,77.9,73.6,70.3,73.0,70.7,68.0,96,92,86,30.13,30.06,20,8,21,0.02
2013-8-9,87.5,77.1,73.4,78.0,74.3,72.0,98,93,70,30.07,29.83,24,9,24,0.44
2013-8-10,82.0,75.4,67.9,74.0,64.3,57.0,96,71,48,30.10,29.88,23,8,23,0.00
2013-8-11,77.4,69.9,59.8,65.0,57.0,52.0,84,65,44,30.18,30.06,12,5,13,0.00
2013-8-12,76.4,71.8,68.2,69.0,65.8,60.0,99,83,59,30.09,29.97,10,3,10,0.13
2013-8-13,73.1,70.1,66.9,71.0,67.3,64.0,99,92,74,29.99,29.75,18,4,18,0.32
2013-8-14,73.1,67.1,59.2,68.0,54.7,48.0,98,67,50,30.09,29.79,33,11,34,0.01
2013-8-15,76.0,66.5,56.3,56.0,52.6,47.0,92,65,39,30.20,30.09,20,6,20,0.00
2013-8-16,61.7,61.1,60.5,56.0,55.9,55.0,85,84,83,30.20,30.18,6,4,7,0.00
2013-8-21,68.9,68.9,68.9,66.0,66.0,66.0,92,92,92,30.16,30.16,5,5,5,0.00
2013-8-27,84.1,78.7,73.1,69.0,68.1,67.0,87,71,58,29.95,29.88,18,6,19,0.06
2013-8-28,79.3,74.0,68.0,72.0,69.4,67.0,98,87,70,29.95,29.89,13,4,14,0.00
2013-8-29,74.6,71.8,69.3,71.0,67.5,65.0,96,87,73,30.09,29.94,20,7,21,0.00
2013-8-30,82.5,74.3,67.7,72.0,67.8,64.0,92,81,64,30.09,29.89,17,7,18,0.00
2013-8-31,82.5,76.9,73.7,74.0,71.9,70.0,91,85,75,29.92,29.83,20,7,21,0.00
2013-9-1,81.2,76.2,73.6,75.0,73.0,72.0,96,91,80,29.91,29.85,12,5,12,0.47
2013-9-2,79.3,76.1,73.1,76.0,74.1,72.0,99,95,88,29.87,29.75,11,4,13,0.00
2013-9-3,79.3,74.6,68.3,74.0,66.9,57.0,100,80,50,29.94,29.75,23,7,26,0.01
2013-9-4,81.0,71.6,63.5,60.0,57.7,52.0,86,64,41,30.04,29.93,21,8,21,0.00
2013-9-5,75.2,69.0,58.1,61.0,54.7,45.0,89,62,38,30.21,29.96,22,7,22,0.00
2013-9-6,70.0,60.6,53.2,50.0,45.8,40.0,84,60,39,30.31,30.18,18,6,18,0.00
2013-9-7,76.2,65.3,52.1,61.0,52.3,45.0,92,66,39,30.19,29.95,17,6,18,0.00
2013-9-8,79.6,70.7,61.5,64.0,55.9,43.0,82,61,39,30.14,29.84,25,8,27,0.00
2013-9-9,69.8,61.9,52.7,61.0,49.5,43.0,80,65,51,30.31,30.13,20,7,20,0.00
2013-9-10,81.9,73.6,68.0,73.0,68.2,61.0,91,84,73,30.22,30.10,18,8,19,0.01
2013-9-11,89.0,80.3,73.5,76.0,73.2,71.0,95,81,65,30.16,30.02,19,6,20,0.00
2013-9-12,81.7,75.4,69.0,73.0,71.1,68.0,99,87,69,30.04,29.74,27,6,28,1.04
2013-9-13,74.8,68.1,58.7,69.0,62.5,53.0,99,84,59,29.90,29.68,29,8,29,0.06
2013-9-14,65.8,59.0,52.7,53.0,49.9,48.0,90,73,57,30.18,29.89,23,9,26,0.00
2013-9-15,70.0,60.0,48.9,59.0,49.5,46.0,91,71,46,30.27,30.13,15,6,16,0.00
2013-9-16,70.7,63.1,56.2,58.0,54.2,46.0,90,75,51,30.31,30.09,19,6,23,0.00
2013-9-17,60.9,53.9,46.2,48.0,42.3,36.0,88,66,45,30.50,30.31,17,6,19,0.00
2013-9-18,70.6,58.8,47.4,55.0,48.4,44.0,96,71,40,30.41,30.24,14,7,16,0.00
2013-9-19,75.7,62.0,50.4,57.0,53.2,50.0,98,76,44,30.26,30.11,13,6,14,0.00
2013-9-20,75.2,64.1,53.1,63.0,57.6,52.0,98,81,49,30.15,30.05,17,7,17,0.00
2013-9-21,72.9,67.4,57.6,68.0,63.5,56.0,97,89,81,30.08,29.72,32,12,32,0.34
2013-9-22,70.2,63.0,53.0,68.0,53.8,46.0,99,74,51,29.97,29.70,32,12,33,0.63
2013-9-23,65.3,55.5,47.7,49.0,44.2,41.0,87,67,46,30.11,29.97,24,8,24,0.00
2013-9-24,72.0,56.7,43.7,53.0,46.0,42.0,95,70,39,30.12,29.91,21,6,23,0.00
2013-9-25,70.3,60.3,50.1,54.0,48.5,43.0,86,66,44,30.01,29.92,20,7,21,0.00
2013-9-26,65.7,60.0,53.8,57.0,54.5,51.0,95,83,71,30.17,30.00,16,5,16,0.00
2013-9-27,63.9,58.4,52.0,54.0,52.3,50.0,97,82,69,30.33,30.16,15,5,15,0.00
2013-9-28,68.9,61.3,53.5,57.0,53.8,50.0,93,78,58,30.38,30.30,13,6,13,0.00
2013-9-29,65.4,58.9,52.8,57.0,53.5,47.0,98,84,54,30.31,30.15,17,6,17,0.00
2013-9-30,69.7,59.3,50.4,58.0,52.7,49.0,96,80,60,30.15,30.02,14,5,14,0.00
2013-10-1,79.6,65.2,52.8,61.0,56.1,52.0,99,76,44,30.06,29.94,18,4,19,0.00
2013-10-2,81.4,69.4,58.4,63.0,59.8,57.0,96,75,53,30.07,29.94,22,6,24,0.00
2013-10-3,74.7,66.4,56.8,60.0,56.9,50.0,95,74,45,30.18,30.06,11,4,11,0.00
2013-10-4,83.5,68.0,60.3,68.0,62.6,57.0,93,84,56,30.13,30.01,14,4,14,0.00
2013-10-5,69.4,65.9,63.0,66.0,62.5,60.0,94,90,83,30.16,30.08,13,4,13,0.00
2013-10-6,66.9,65.4,64.5,66.0,64.4,63.0,100,98,94,30.18,30.10,22,9,22,0.01
2013-10-7,75.0,69.0,61.0,70.0,66.3,54.0,99,92,79,30.11,29.81,44,13,47,0.22
2013-10-8,67.1,59.0,52.6,54.0,46.4,41.0,86,65,41,30.40,30.03,19,8,24,0.00
2013-10-9,60.7,55.6,49.7,51.0,45.6,40.0,82,70,62,30.48,30.36,20,6,21,0.00
2013-10-10,64.4,57.3,51.3,56.0,51.1,46.0,86,80,75,30.37,30.15,18,6,18,0.00
2013-10-11,68.9,63.7,58.9,61.0,56.8,53.0,86,79,71,30.16,30.07,19,5,20,0.00
2013-10-12,67.6,62.8,58.1,59.0,50.3,43.0,84,65,48,30.37,30.15,25,8,27,0.00
2013-10-13,60.6,57.1,52.7,53.0,50.4,48.0,88,79,72,30.47,30.35,21,7,22,0.00
2013-10-14,61.3,56.4,50.4,53.0,49.5,46.0,93,78,65,30.44,30.31,16,6,17,0.00
2013-10-15,64.8,57.0,49.4,57.0,52.1,47.0,97,85,53,30.33,30.18,16,5,17,0.00
2013-10-16,62.5,58.7,53.6,60.0,53.7,49.0,95,84,71,30.19,29.98,11,4,11,0.00
2013-10-17,71.0,64.8,61.7,63.0,61.7,60.0,97,91,73,29.99,29.75,20,8,20,0.00
2013-10-18,66.8,62.0,53.5,64.0,49.4,43.0,95,65,43,30.04,29.71,34,11,38,0.00
2013-10-19,62.8,55.0,46.0,56.0,48.2,43.0,92,79,57,30.06,29.80,18,7,18,0.00
2013-10-20,61.4,55.7,51.0,56.0,42.2,36.0,86,62,41,30.12,29.80,26,10,28,0.00
2013-10-21,64.5,55.4,43.6,50.0,43.2,39.0,90,66,41,30.22,30.05,24,9,25,0.00
2013-10-22,64.6,57.3,47.8,53.0,48.6,43.0,94,74,56,30.05,29.80,19,6,21,0.00
2013-10-23,53.2,47.4,41.9,44.0,38.3,33.0,93,72,53,29.88,29.68,20,6,24,0.00
2013-10-24,52.8,46.6,40.3,38.0,32.7,28.0,82,59,39,30.05,29.80,29,10,31,0.00
2013-10-25,52.0,45.3,39.6,35.0,32.7,29.0,77,61,46,30.28,30.05,36,10,36,0.00
2013-10-26,54.8,47.0,35.9,37.0,34.2,31.0,96,64,42,30.27,29.95,30,8,33,0.00
2013-10-27,56.3,50.1,43.5,37.0,34.1,31.0,75,55,40,30.17,29.90,28,9,29,0.01
2013-10-28,60.6,49.0,37.4,39.0,36.0,33.0,92,63,39,30.39,30.17,27,6,28,0.00
2013-10-29,52.5,45.4,40.2,36.0,32.1,26.0,76,60,43,30.49,30.39,10,5,13,0.00
2013-10-30,56.9,48.5,40.5,52.0,42.3,33.0,96,79,69,30.42,30.24,8,3,8,0.00
2013-10-31,63.0,55.8,43.7,60.0,53.6,43.0,98,93,83,30.29,29.88,19,6,19,0.01
2013-11-1,69.2,63.7,55.0,62.0,58.0,53.0,97,84,58,29.88,29.60,32,9,35,0.13
2013-11-2,63.8,56.4,50.0,56.0,48.5,40.0,98,77,55,29.85,29.67,18,4,19,0.00
2013-11-3,51.9,44.5,35.4,44.0,34.1,21.0,84,67,55,30.51,29.84,26,11,28,0.00
2013-11-4,43.2,37.6,31.8,29.0,22.6,16.0,68,53,37,30.72,30.50,18,6,21,0.00
2013-11-5,51.6,45.4,35.9,45.0,35.5,23.0,77,68,53,30.73,30.55,15,6,15,0.00
2013-11-6,59.2,52.5,42.0,56.0,47.3,40.0,95,84,64,30.56,30.13,17,6,18,0.00
2013-11-7,63.5,54.8,42.1,59.0,49.9,31.0,98,85,57,30.14,29.80,28,8,28,0.14
2013-11-8,47.8,43.4,39.9,33.0,29.9,26.0,75,59,43,30.26,29.97,40,13,41,0.01
2013-11-9,48.9,43.6,37.1,38.0,30.1,26.0,70,58,44,30.34,30.06,20,9,22,0.00
2013-11-10,58.9,49.5,43.8,40.0,35.5,29.0,73,59,37,30.09,29.84,41,11,41,0.00
2013-11-11,52.2,48.1,42.3,35.0,30.4,28.0,55,50,43,30.25,30.01,41,11,41,0.00
2013-11-12,51.1,38.1,31.3,38.0,27.8,18.0,95,66,51,30.32,29.99,28,11,30,0.08
2013-11-13,38.4,32.9,26.6,23.0,17.8,14.0,70,53,35,30.42,30.31,23,8,25,0.00
2013-11-14,52.4,42.0,32.0,23.0,20.8,16.0,65,43,26,30.32,30.19,24,7,24,0.00
2013-11-15,55.1,44.1,32.9,42.0,32.1,21.0,87,63,38,30.32,30.21,14,5,14,0.00
2013-11-16,58.0,47.5,37.1,48.0,41.6,32.0,98,81,62,30.40,30.28,14,4,14,0.01
2013-11-17,59.2,53.1,42.7,58.0,52.4,42.0,100,98,96,30.35,29.86,12,3,12,0.01
2013-11-18,64.5,59.0,50.6,60.0,43.0,29.0,100,60,33,29.87,29.66,34,11,39,0.23
2013-11-19,50.5,42.8,33.9,31.0,26.8,23.0,63,52,42,30.40,29.80,41,18,42,0.04
2013-11-20,43.5,35.8,30.8,24.0,19.6,14.0,67,51,31,30.67,30.40,28,8,30,0.00
2013-11-21,48.0,40.6,30.4,41.0,29.2,16.0,81,64,44,30.68,30.45,13,4,13,0.00
2013-11-22,54.7,50.7,45.5,50.0,46.8,39.0,97,87,79,30.46,29.95,15,4,15,0.09
2013-11-23,54.3,41.7,29.9,50.0,28.0,16.0,87,58,40,30.07,29.93,39,18,40,0.00
2013-11-24,29.9,25.7,22.9,16.0,8.5,4.0,56,45,30,30.40,29.99,52,23,56,0.03
2013-11-25,35.5,28.8,22.2,18.0,14.5,8.0,66,53,39,30.52,30.38,22,9,24,0.00
2013-11-26,47.4,38.0,33.8,47.0,27.0,16.0,98,65,46,30.40,29.88,25,7,25,0.44
2013-11-27,60.7,47.9,34.7,60.0,45.8,23.0,100,93,60,29.88,29.37,45,17,60,1.73
2013-11-28,34.6,31.0,28.2,23.0,16.9,14.0,65,54,43,30.53,29.74,47,15,47,0.00
2013-11-29,37.0,32.1,27.2,24.0,20.7,18.0,73,60,52,30.79,30.52,23,6,23,0.00
2013-11-30,37.7,29.8,21.1,31.0,21.2,14.0,76,68,52,30.83,30.44,18,5,18,0.00
2013-12-1,47.7,40.8,35.5,39.0,34.2,29.0,86,77,62,30.44,30.07,12,4,12,0.00
2013-12-2,43.4,39.0,35.1,40.0,36.0,32.0,97,88,82,30.07,29.96,9,3,9,0.00
2013-12-3,51.1,40.9,33.5,41.0,36.1,33.0,98,84,60,30.07,29.93,11,5,11,0.00
2013-12-4,46.0,40.9,33.1,42.0,36.6,32.0,95,85,68,30.22,30.06,10,3,10,0.00
2013-12-5,55.7,50.7,45.4,56.0,50.1,41.0,100,98,88,30.21,30.01,11,2,11,0.04
2013-12-6,55.2,45.9,36.5,55.0,44.9,35.0,100,96,89,30.22,29.94,21,6,23,0.76
2013-12-7,40.4,36.1,31.5,36.0,29.4,21.0,97,77,57,30.57,30.15,22,8,24,0.10
2013-12-8,31.9,29.9,27.0,29.0,20.8,18.0,93,67,60,30.66,30.45,16,6,16,0.00
2013-12-9,39.8,34.6,28.8,40.0,34.0,28.0,100,97,93,30.45,30.01,15,5,18,0.17
2013-12-10,36.0,32.9,28.3,35.0,30.6,21.0,99,91,72,30.17,29.91,17,7,21,0.08
2013-12-11,33.8,29.1,25.1,21.0,18.7,16.0,75,63,51,30.37,30.17,24,9,24,0.00
2013-12-12,28.7,24.7,22.4,18.0,12.0,8.0,68,55,46,30.40,30.20,29,12,30,0.01
2013-12-13,34.3,28.2,21.5,23.0,14.3,8.0,73,53,48,30.40,30.16,30,9,31,0.00
2013-12-14,31.4,22.4,18.2,29.0,19.0,16.0,97,86,66,30.58,29.88,26,8,29,0.06
2013-12-15,37.9,34.7,30.7,36.0,30.1,23.0,98,83,66,29.89,29.54,36,11,37,0.63
2013-12-16,32.7,27.3,19.7,24.0,15.5,11.0,84,59,45,30.29,29.88,35,11,35,0.00
2013-12-17,28.5,22.9,17.5,26.0,20.0,14.0,96,88,69,30.29,29.99,15,5,15,0.00
2013-12-18,34.3,23.4,22.1,24.0,19.2,18.0,87,85,63,30.07,29.96,20,9,32,0.00
2013-12-19,44.6,40.6,31.4,32.0,28.8,24.0,79,62,51,30.20,30.09,17,5,22,0.05
2013-12-20,48.8,40.8,33.7,37.0,33.7,31.0,88,75,58,30.17,30.03,12,3,12,0.00
2013-12-21,52.9,46.5,40.5,50.0,43.6,36.0,96,90,82,30.06,29.98,11,3,13,0.00
2013-12-22,63.0,57.1,50.6,59.0,54.5,48.0,99,92,80,30.04,29.88,27,6,27,0.00
2013-12-23,57.7,51.7,41.3,57.0,50.4,37.0,100,96,85,30.20,29.94,31,5,32,0.52
2013-12-24,41.2,36.6,32.5,37.0,31.0,26.0,85,79,68,30.23,30.18,20,8,20,0.00
2013-12-27,38.2,35.5,29.7,26.0,23.1,18.0,72,59,46,30.42,30.32,22,7,22,0.00
2013-12-28,52.9,42.0,29.0,31.0,27.5,24.0,87,58,38,30.34,30.13,27,6,27,0.00
2013-12-29,45.2,41.1,35.8,44.0,35.8,28.0,98,82,53,30.13,29.46,28,6,29,1.08
2013-12-30,41.6,33.4,21.1,40.0,26.4,11.0,94,75,53,30.25,29.73,26,8,32,0.01
2013-12-31,30.8,26.5,18.7,24.0,16.6,11.0,75,63,47,30.33,30.14,28,9,28,0.00
2014-1-1,31.6,27.2,22.3,21.0,15.1,8.0,63,58,51,30.47,30.32,18,6,23,0.00
2014-1-2,29.6,24.1,15.1,23.0,20.6,14.0,92,83,61,30.33,29.74,23,8,25,0.00